Year,Month,Day,Hour,Minute,Value (Times are PST for windgust in km/hr)
2008,12,29,00,00,0.00
2008,12,29,00,01,0.00
2008,12,29,00,02,0.00
2008,12,29,00,03,0.00
2008,12,29,00,04,0.00
2008,12,29,00,05,0.00
2008,12,29,00,06,0.00
2008,12,29,00,07,0.00
2008,12,29,00,08,0.00
2008,12,29,00,09,0.00
2008,12,29,00,10,0.00
2008,12,29,00,11,0.00
2008,12,29,00,12,0.00
2008,12,29,00,13,0.00
2008,12,29,00,14,0.00
2008,12,29,00,15,0.00
2008,12,29,00,16,0.00
2008,12,29,00,17,0.00
2008,12,29,00,18,0.00
2008,12,29,00,19,0.00
2008,12,29,00,20,0.00
2008,12,29,00,21,0.00
2008,12,29,00,22,0.00
2008,12,29,00,23,0.00
2008,12,29,00,24,0.00
2008,12,29,00,25,0.00
2008,12,29,00,26,0.00
2008,12,29,00,27,1.60
2008,12,29,00,28,1.60
2008,12,29,00,29,1.60
2008,12,29,00,30,0.00
2008,12,29,00,31,0.00
2008,12,29,00,32,0.00
2008,12,29,00,33,0.00
2008,12,29,00,34,0.00
2008,12,29,00,35,0.00
2008,12,29,00,36,0.00
2008,12,29,00,37,0.00
2008,12,29,00,38,0.00
2008,12,29,00,39,0.00
2008,12,29,00,40,0.00
2008,12,29,00,41,0.00
2008,12,29,00,42,0.00
2008,12,29,00,43,0.00
2008,12,29,00,44,0.00
2008,12,29,00,45,0.00
2008,12,29,00,46,0.00
2008,12,29,00,47,0.00
2008,12,29,00,48,0.00
2008,12,29,00,49,0.00
2008,12,29,00,50,0.00
2008,12,29,00,51,0.00
2008,12,29,00,52,0.00
2008,12,29,00,53,0.00
2008,12,29,00,54,1.60
2008,12,29,00,55,3.20
2008,12,29,00,56,1.60
2008,12,29,00,57,0.00
2008,12,29,00,58,0.00
2008,12,29,00,59,0.00
2008,12,29,01,00,0.00
2008,12,29,01,01,1.60
2008,12,29,01,02,3.20
2008,12,29,01,03,0.00
2008,12,29,01,04,0.00
2008,12,29,01,05,0.00
2008,12,29,01,06,0.00
2008,12,29,01,07,0.00
2008,12,29,01,08,0.00
2008,12,29,01,09,0.00
2008,12,29,01,10,0.00
2008,12,29,01,11,0.00
2008,12,29,01,12,0.00
2008,12,29,01,13,0.00
2008,12,29,01,14,0.00
2008,12,29,01,15,0.00
2008,12,29,01,16,0.00
2008,12,29,01,17,0.00
2008,12,29,01,18,0.00
2008,12,29,01,19,0.00
2008,12,29,01,20,0.00
2008,12,29,01,21,0.00
2008,12,29,01,22,0.00
2008,12,29,01,23,0.00
2008,12,29,01,24,0.00
2008,12,29,01,25,0.00
2008,12,29,01,26,0.00
2008,12,29,01,27,0.00
2008,12,29,01,28,0.00
2008,12,29,01,29,0.00
2008,12,29,01,30,0.00
2008,12,29,01,31,0.00
2008,12,29,01,32,0.00
2008,12,29,01,33,0.00
2008,12,29,01,34,0.00
2008,12,29,01,35,0.00
2008,12,29,01,36,0.00
2008,12,29,01,37,0.00
2008,12,29,01,38,1.60
2008,12,29,01,39,0.00
2008,12,29,01,40,0.00
2008,12,29,01,41,0.00
2008,12,29,01,42,0.00
2008,12,29,01,43,0.00
2008,12,29,01,44,0.00
2008,12,29,01,45,0.00
2008,12,29,01,46,0.00
2008,12,29,01,47,0.00
2008,12,29,01,48,0.00
2008,12,29,01,49,0.00
2008,12,29,01,50,0.00
2008,12,29,01,51,0.00
2008,12,29,01,52,0.00
2008,12,29,01,53,0.00
2008,12,29,01,54,0.00
2008,12,29,01,55,0.00
2008,12,29,01,56,0.00
2008,12,29,01,57,0.00
2008,12,29,01,58,0.00
2008,12,29,01,59,0.00
2008,12,29,02,00,0.00
2008,12,29,02,01,0.00
2008,12,29,02,02,0.00
2008,12,29,02,03,0.00
2008,12,29,02,04,0.00
2008,12,29,02,05,0.00
2008,12,29,02,06,0.00
2008,12,29,02,07,0.00
2008,12,29,02,08,0.00
2008,12,29,02,09,0.00
2008,12,29,02,10,0.00
2008,12,29,02,11,0.00
2008,12,29,02,12,0.00
2008,12,29,02,13,0.00
2008,12,29,02,14,0.00
2008,12,29,02,15,0.00
2008,12,29,02,16,0.00
2008,12,29,02,17,0.00
2008,12,29,02,18,0.00
2008,12,29,02,19,0.00
2008,12,29,02,20,0.00
2008,12,29,02,21,0.00
2008,12,29,02,22,0.00
2008,12,29,02,23,0.00
2008,12,29,02,24,0.00
2008,12,29,02,25,0.00
2008,12,29,02,26,0.00
2008,12,29,02,27,0.00
2008,12,29,02,28,0.00
2008,12,29,02,29,0.00
2008,12,29,02,30,0.00
2008,12,29,02,31,0.00
2008,12,29,02,32,0.00
2008,12,29,02,33,0.00
2008,12,29,02,34,0.00
2008,12,29,02,35,0.00
2008,12,29,02,36,0.00
2008,12,29,02,37,0.00
2008,12,29,02,38,0.00
2008,12,29,02,39,0.00
2008,12,29,02,40,0.00
2008,12,29,02,41,0.00
2008,12,29,02,42,0.00
2008,12,29,02,43,0.00
2008,12,29,02,44,0.00
2008,12,29,02,45,0.00
2008,12,29,02,46,0.00
2008,12,29,02,47,0.00
2008,12,29,02,48,0.00
2008,12,29,02,49,1.60
2008,12,29,02,50,0.00
2008,12,29,02,51,0.00
2008,12,29,02,52,0.00
2008,12,29,02,53,1.60
2008,12,29,02,54,3.20
2008,12,29,02,55,3.20
2008,12,29,02,56,0.00
2008,12,29,02,57,0.00
2008,12,29,02,58,0.00
2008,12,29,02,59,0.00
2008,12,29,03,00,0.00
2008,12,29,03,01,0.00
2008,12,29,03,02,0.00
2008,12,29,03,03,0.00
2008,12,29,03,04,1.60
2008,12,29,03,05,4.80
2008,12,29,03,06,3.20
2008,12,29,03,07,0.00
2008,12,29,03,08,0.00
2008,12,29,03,09,1.60
2008,12,29,03,10,0.00
2008,12,29,03,11,3.20
2008,12,29,03,12,3.20
2008,12,29,03,13,4.80
2008,12,29,03,14,3.20
2008,12,29,03,15,0.00
2008,12,29,03,16,0.00
2008,12,29,03,17,0.00
2008,12,29,03,18,0.00
2008,12,29,03,19,1.60
2008,12,29,03,20,0.00
2008,12,29,03,21,0.00
2008,12,29,03,22,0.00
2008,12,29,03,23,0.00
2008,12,29,03,24,0.00
2008,12,29,03,25,0.00
2008,12,29,03,26,0.00
2008,12,29,03,27,1.60
2008,12,29,03,28,1.60
2008,12,29,03,29,0.00
2008,12,29,03,30,0.00
2008,12,29,03,31,0.00
2008,12,29,03,32,1.60
2008,12,29,03,33,3.20
2008,12,29,03,34,0.00
2008,12,29,03,35,3.20
2008,12,29,03,36,3.20
2008,12,29,03,37,0.00
2008,12,29,03,38,0.00
2008,12,29,03,39,0.00
2008,12,29,03,40,0.00
2008,12,29,03,41,1.60
2008,12,29,03,42,1.60
2008,12,29,03,43,0.00
2008,12,29,03,44,0.00
2008,12,29,03,45,0.00
2008,12,29,03,46,0.00
2008,12,29,03,47,0.00
2008,12,29,03,48,0.00
2008,12,29,03,49,0.00
2008,12,29,03,50,0.00
2008,12,29,03,51,0.00
2008,12,29,03,52,0.00
2008,12,29,03,53,0.00
2008,12,29,03,54,0.00
2008,12,29,03,55,0.00
2008,12,29,03,56,1.60
2008,12,29,03,57,8.10
2008,12,29,03,58,9.60
2008,12,29,03,59,1.60
2008,12,29,04,00,1.60
2008,12,29,04,01,0.00
2008,12,29,04,02,0.00
2008,12,29,04,03,1.60
2008,12,29,04,04,4.80
2008,12,29,04,05,6.40
2008,12,29,04,06,6.40
2008,12,29,04,07,4.80
2008,12,29,04,08,1.60
2008,12,29,04,09,6.40
2008,12,29,04,10,3.20
2008,12,29,04,11,3.20
2008,12,29,04,12,4.80
2008,12,29,04,13,4.80
2008,12,29,04,14,3.20
2008,12,29,04,15,0.00
2008,12,29,04,16,3.20
2008,12,29,04,17,3.20
2008,12,29,04,18,0.00
2008,12,29,04,19,0.00
2008,12,29,04,20,0.00
2008,12,29,04,21,0.00
2008,12,29,04,22,0.00
2008,12,29,04,23,0.00
2008,12,29,04,24,0.00
2008,12,29,04,25,0.00
2008,12,29,04,26,0.00
2008,12,29,04,27,0.00
2008,12,29,04,28,0.00
2008,12,29,04,29,0.00
2008,12,29,04,30,0.00
2008,12,29,04,31,0.00
2008,12,29,04,32,0.00
2008,12,29,04,33,0.00
2008,12,29,04,34,0.00
2008,12,29,04,35,0.00
2008,12,29,04,36,0.00
2008,12,29,04,37,0.00
2008,12,29,04,38,0.00
2008,12,29,04,39,0.00
2008,12,29,04,40,0.00
2008,12,29,04,41,0.00
2008,12,29,04,42,0.00
2008,12,29,04,43,0.00
2008,12,29,04,44,0.00
2008,12,29,04,45,0.00
2008,12,29,04,46,0.00
2008,12,29,04,47,0.00
2008,12,29,04,48,0.00
2008,12,29,04,49,0.00
2008,12,29,04,50,0.00
2008,12,29,04,51,0.00
2008,12,29,04,52,0.00
2008,12,29,04,53,0.00
2008,12,29,04,54,0.00
2008,12,29,04,55,0.00
2008,12,29,04,56,0.00
2008,12,29,04,57,0.00
2008,12,29,04,58,0.00
2008,12,29,04,59,0.00
2008,12,29,05,00,0.00
2008,12,29,05,01,0.00
2008,12,29,05,02,0.00
2008,12,29,05,03,0.00
2008,12,29,05,04,0.00
2008,12,29,05,05,0.00
2008,12,29,05,06,0.00
2008,12,29,05,07,0.00
2008,12,29,05,08,0.00
2008,12,29,05,09,0.00
2008,12,29,05,10,0.00
2008,12,29,05,11,0.00
2008,12,29,05,12,0.00
2008,12,29,05,13,0.00
2008,12,29,05,14,0.00
2008,12,29,05,15,0.00
2008,12,29,05,16,0.00
2008,12,29,05,17,0.00
2008,12,29,05,18,0.00
2008,12,29,05,19,0.00
2008,12,29,05,20,0.00
2008,12,29,05,21,0.00
2008,12,29,05,22,0.00
2008,12,29,05,23,0.00
2008,12,29,05,24,0.00
2008,12,29,05,25,0.00
2008,12,29,05,26,0.00
2008,12,29,05,27,0.00
2008,12,29,05,28,0.00
2008,12,29,05,29,0.00
2008,12,29,05,30,0.00
2008,12,29,05,31,0.00
2008,12,29,05,32,0.00
2008,12,29,05,33,0.00
2008,12,29,05,34,0.00
2008,12,29,05,35,0.00
2008,12,29,05,36,0.00
2008,12,29,05,37,0.00
2008,12,29,05,38,1.60
2008,12,29,05,39,1.60
2008,12,29,05,40,0.00
2008,12,29,05,41,0.00
2008,12,29,05,42,0.00
2008,12,29,05,43,0.00
2008,12,29,05,44,0.00
2008,12,29,05,45,0.00
2008,12,29,05,46,0.00
2008,12,29,05,47,0.00
2008,12,29,05,48,0.00
2008,12,29,05,49,0.00
2008,12,29,05,50,0.00
2008,12,29,05,51,0.00
2008,12,29,05,52,0.00
2008,12,29,05,53,0.00
2008,12,29,05,54,0.00
2008,12,29,05,55,0.00
2008,12,29,05,56,0.00
2008,12,29,05,57,0.00
2008,12,29,05,58,0.00
2008,12,29,05,59,0.00
2008,12,29,06,00,0.00
2008,12,29,06,01,0.00
2008,12,29,06,02,0.00
2008,12,29,06,03,0.00
2008,12,29,06,04,0.00
2008,12,29,06,05,0.00
2008,12,29,06,06,0.00
2008,12,29,06,07,0.00
2008,12,29,06,08,3.20
2008,12,29,06,09,1.60
2008,12,29,06,10,0.00
2008,12,29,06,11,0.00
2008,12,29,06,12,0.00
2008,12,29,06,13,0.00
2008,12,29,06,14,0.00
2008,12,29,06,15,0.00
2008,12,29,06,16,3.20
2008,12,29,06,17,3.20
2008,12,29,06,18,4.80
2008,12,29,06,19,1.60
2008,12,29,06,20,0.00
2008,12,29,06,21,0.00
2008,12,29,06,22,4.80
2008,12,29,06,23,3.20
2008,12,29,06,24,0.00
2008,12,29,06,25,0.00
2008,12,29,06,26,0.00
2008,12,29,06,27,0.00
2008,12,29,06,28,3.20
2008,12,29,06,29,0.00
2008,12,29,06,30,0.00
2008,12,29,06,31,0.00
2008,12,29,06,32,0.00
2008,12,29,06,33,0.00
2008,12,29,06,34,3.20
2008,12,29,06,35,3.20
2008,12,29,06,36,0.00
2008,12,29,06,37,0.00
2008,12,29,06,38,0.00
2008,12,29,06,39,6.40
2008,12,29,06,40,6.40
2008,12,29,06,41,3.20
2008,12,29,06,42,0.00
2008,12,29,06,43,0.00
2008,12,29,06,44,1.60
2008,12,29,06,45,6.40
2008,12,29,06,46,3.20
2008,12,29,06,47,3.20
2008,12,29,06,48,1.60
2008,12,29,06,49,3.20
2008,12,29,06,50,1.60
2008,12,29,06,51,0.00
2008,12,29,06,52,0.00
2008,12,29,06,53,0.00
2008,12,29,06,54,0.00
2008,12,29,06,55,1.60
2008,12,29,06,56,3.20
2008,12,29,06,57,3.20
2008,12,29,06,58,4.80
2008,12,29,06,59,4.80
2008,12,29,07,00,3.20
2008,12,29,07,01,0.00
2008,12,29,07,02,0.00
2008,12,29,07,03,0.00
2008,12,29,07,04,0.00
2008,12,29,07,05,0.00
2008,12,29,07,06,0.00
2008,12,29,07,07,0.00
2008,12,29,07,08,0.00
2008,12,29,07,09,0.00
2008,12,29,07,10,0.00
2008,12,29,07,11,0.00
2008,12,29,07,12,3.20
2008,12,29,07,13,1.60
2008,12,29,07,14,1.60
2008,12,29,07,15,0.00
2008,12,29,07,16,0.00
2008,12,29,07,17,0.00
2008,12,29,07,18,0.00
2008,12,29,07,19,0.00
2008,12,29,07,20,0.00
2008,12,29,07,21,0.00
2008,12,29,07,22,0.00
2008,12,29,07,23,0.00
2008,12,29,07,24,0.00
2008,12,29,07,25,0.00
2008,12,29,07,26,0.00
2008,12,29,07,27,3.20
2008,12,29,07,28,1.60
2008,12,29,07,29,0.00
2008,12,29,07,30,0.00
2008,12,29,07,31,0.00
2008,12,29,07,32,0.00
2008,12,29,07,33,3.20
2008,12,29,07,34,3.20
2008,12,29,07,35,0.00
2008,12,29,07,36,0.00
2008,12,29,07,37,1.60
2008,12,29,07,38,1.60
2008,12,29,07,39,4.80
2008,12,29,07,40,3.20
2008,12,29,07,41,1.60
2008,12,29,07,42,1.60
2008,12,29,07,43,3.20
2008,12,29,07,44,3.20
2008,12,29,07,45,4.80
2008,12,29,07,46,3.20
2008,12,29,07,47,3.20
2008,12,29,07,48,3.20
2008,12,29,07,49,3.20
2008,12,29,07,50,0.00
2008,12,29,07,51,3.20
2008,12,29,07,52,6.40
2008,12,29,07,53,4.80
2008,12,29,07,54,3.20
2008,12,29,07,55,3.20
2008,12,29,07,56,4.80
2008,12,29,07,57,6.40
2008,12,29,07,58,6.40
2008,12,29,07,59,8.10
2008,12,29,08,00,8.10
2008,12,29,08,01,6.40
2008,12,29,08,02,4.80
2008,12,29,08,03,6.40
2008,12,29,08,04,4.80
2008,12,29,08,05,8.10
2008,12,29,08,06,4.80
2008,12,29,08,07,3.20
2008,12,29,08,08,4.80
2008,12,29,08,09,4.80
2008,12,29,08,10,3.20
2008,12,29,08,11,6.40
2008,12,29,08,12,3.20
2008,12,29,08,13,1.60
2008,12,29,08,14,1.60
2008,12,29,08,15,6.40
2008,12,29,08,16,3.20
2008,12,29,08,17,4.80
2008,12,29,08,18,6.40
2008,12,29,08,19,6.40
2008,12,29,08,20,4.80
2008,12,29,08,21,3.20
2008,12,29,08,22,3.20
2008,12,29,08,23,1.60
2008,12,29,08,24,0.00
2008,12,29,08,25,0.00
2008,12,29,08,26,3.20
2008,12,29,08,27,3.20
2008,12,29,08,28,1.60
2008,12,29,08,29,0.00
2008,12,29,08,30,0.00
2008,12,29,08,31,0.00
2008,12,29,08,32,0.00
2008,12,29,08,33,0.00
2008,12,29,08,34,0.00
2008,12,29,08,35,0.00
2008,12,29,08,36,0.00
2008,12,29,08,37,0.00
2008,12,29,08,38,0.00
2008,12,29,08,39,1.60
2008,12,29,08,40,0.00
2008,12,29,08,41,0.00
2008,12,29,08,42,0.00
2008,12,29,08,43,0.00
2008,12,29,08,44,0.00
2008,12,29,08,45,0.00
2008,12,29,08,46,0.00
2008,12,29,08,47,0.00
2008,12,29,08,48,3.20
2008,12,29,08,49,3.20
2008,12,29,08,50,3.20
2008,12,29,08,51,4.80
2008,12,29,08,52,1.60
2008,12,29,08,53,0.00
2008,12,29,08,54,3.20
2008,12,29,08,55,3.20
2008,12,29,08,56,0.00
2008,12,29,08,57,0.00
2008,12,29,08,58,0.00
2008,12,29,08,59,0.00
2008,12,29,09,00,0.00
2008,12,29,09,01,0.00
2008,12,29,09,02,0.00
2008,12,29,09,03,1.60
2008,12,29,09,04,1.60
2008,12,29,09,05,1.60
2008,12,29,09,06,3.20
2008,12,29,09,07,4.80
2008,12,29,09,08,3.20
2008,12,29,09,09,0.00
2008,12,29,09,10,0.00
2008,12,29,09,11,0.00
2008,12,29,09,12,0.00
2008,12,29,09,13,0.00
2008,12,29,09,14,0.00
2008,12,29,09,15,0.00
2008,12,29,09,16,0.00
2008,12,29,09,17,0.00
2008,12,29,09,18,0.00
2008,12,29,09,19,3.20
2008,12,29,09,20,1.60
2008,12,29,09,21,3.20
2008,12,29,09,22,4.80
2008,12,29,09,23,3.20
2008,12,29,09,24,1.60
2008,12,29,09,25,0.00
2008,12,29,09,26,0.00
2008,12,29,09,27,0.00
2008,12,29,09,28,0.00
2008,12,29,09,29,0.00
2008,12,29,09,30,0.00
2008,12,29,09,31,0.00
2008,12,29,09,32,0.00
2008,12,29,09,33,0.00
2008,12,29,09,34,0.00
2008,12,29,09,35,0.00
2008,12,29,09,36,0.00
2008,12,29,09,37,0.00
2008,12,29,09,38,0.00
2008,12,29,09,39,0.00
2008,12,29,09,40,0.00
2008,12,29,09,41,0.00
2008,12,29,09,42,0.00
2008,12,29,09,43,0.00
2008,12,29,09,44,0.00
2008,12,29,09,45,0.00
2008,12,29,09,46,0.00
2008,12,29,09,47,0.00
2008,12,29,09,48,0.00
2008,12,29,09,49,0.00
2008,12,29,09,50,0.00
2008,12,29,09,51,0.00
2008,12,29,09,52,0.00
2008,12,29,09,53,0.00
2008,12,29,09,54,0.00
2008,12,29,09,55,0.00
2008,12,29,09,56,0.00
2008,12,29,09,57,0.00
2008,12,29,09,58,0.00
2008,12,29,09,59,0.00
2008,12,29,10,00,0.00
2008,12,29,10,01,0.00
2008,12,29,10,02,0.00
2008,12,29,10,03,0.00
2008,12,29,10,04,0.00
2008,12,29,10,05,0.00
2008,12,29,10,06,0.00
2008,12,29,10,07,0.00
2008,12,29,10,08,0.00
2008,12,29,10,09,0.00
2008,12,29,10,10,1.60
2008,12,29,10,11,0.00
2008,12,29,10,12,0.00
2008,12,29,10,13,0.00
2008,12,29,10,14,0.00
2008,12,29,10,15,0.00
2008,12,29,10,16,0.00
2008,12,29,10,17,0.00
2008,12,29,10,18,0.00
2008,12,29,10,19,0.00
2008,12,29,10,20,0.00
2008,12,29,10,21,0.00
2008,12,29,10,22,0.00
2008,12,29,10,23,0.00
2008,12,29,10,24,0.00
2008,12,29,10,25,0.00
2008,12,29,10,26,0.00
2008,12,29,10,27,0.00
2008,12,29,10,28,0.00
2008,12,29,10,29,0.00
2008,12,29,10,30,0.00
2008,12,29,10,31,0.00
2008,12,29,10,32,0.00
2008,12,29,10,33,0.00
2008,12,29,10,34,0.00
2008,12,29,10,35,0.00
2008,12,29,10,36,0.00
2008,12,29,10,37,0.00
2008,12,29,10,38,0.00
2008,12,29,10,39,0.00
2008,12,29,10,40,0.00
2008,12,29,10,41,0.00
2008,12,29,10,42,0.00
2008,12,29,10,43,0.00
2008,12,29,10,44,0.00
2008,12,29,10,45,0.00
2008,12,29,10,46,0.00
2008,12,29,10,47,0.00
2008,12,29,10,48,0.00
2008,12,29,10,49,0.00
2008,12,29,10,50,0.00
2008,12,29,10,51,0.00
2008,12,29,10,52,1.60
2008,12,29,10,53,0.00
2008,12,29,10,54,0.00
2008,12,29,10,55,0.00
2008,12,29,10,56,3.20
2008,12,29,10,57,3.20
2008,12,29,10,58,3.20
2008,12,29,10,59,0.00
2008,12,29,11,00,0.00
2008,12,29,11,01,0.00
2008,12,29,11,02,0.00
2008,12,29,11,03,0.00
2008,12,29,11,04,0.00
2008,12,29,11,05,1.60
2008,12,29,11,06,3.20
2008,12,29,11,07,4.80
2008,12,29,11,08,3.20
2008,12,29,11,09,3.20
2008,12,29,11,10,4.80
2008,12,29,11,11,3.20
2008,12,29,11,12,3.20
2008,12,29,11,13,6.40
2008,12,29,11,14,4.80
2008,12,29,11,15,4.80
2008,12,29,11,16,3.20
2008,12,29,11,17,3.20
2008,12,29,11,18,8.10
2008,12,29,11,19,4.80
2008,12,29,11,20,4.80
2008,12,29,11,21,4.80
2008,12,29,11,22,8.10
2008,12,29,11,23,8.10
2008,12,29,11,24,8.10
2008,12,29,11,25,25.70
2008,12,29,11,26,22.50
2008,12,29,11,27,19.30
2008,12,29,11,28,11.30
2008,12,29,11,29,11.30
2008,12,29,11,30,4.80
2008,12,29,11,31,32.20
2008,12,29,11,32,14.50
2008,12,29,11,33,33.80
2008,12,29,11,34,32.20
2008,12,29,11,35,30.60
2008,12,29,11,36,37.00
2008,12,29,11,37,40.20
2008,12,29,11,38,30.60
2008,12,29,11,39,27.40
2008,12,29,11,40,17.70
2008,12,29,11,41,9.60
2008,12,29,11,42,6.40
2008,12,29,11,43,12.90
2008,12,29,11,44,17.70
2008,12,29,11,45,46.70
2008,12,29,11,46,27.40
2008,12,29,11,47,14.50
2008,12,29,11,48,37.00
2008,12,29,11,49,22.50
2008,12,29,11,50,29.00
2008,12,29,11,51,30.60
2008,12,29,11,52,35.40
2008,12,29,11,53,49.90
2008,12,29,11,54,25.70
2008,12,29,11,55,40.20
2008,12,29,11,56,32.20
2008,12,29,11,57,62.70
2008,12,29,11,58,43.50
2008,12,29,11,59,49.90
2008,12,29,12,00,48.30
2008,12,29,12,01,48.30
2008,12,29,12,02,27.40
2008,12,29,12,03,33.80
2008,12,29,12,04,41.80
2008,12,29,12,05,43.50
2008,12,29,12,06,33.80
2008,12,29,12,07,33.80
2008,12,29,12,08,35.40
2008,12,29,12,09,38.60
2008,12,29,12,10,41.80
2008,12,29,12,11,40.20
2008,12,29,12,12,46.70
2008,12,29,12,13,25.70
2008,12,29,12,14,41.80
2008,12,29,12,15,59.50
2008,12,29,12,16,35.40
2008,12,29,12,17,25.70
2008,12,29,12,18,32.20
2008,12,29,12,19,29.00
2008,12,29,12,20,48.30
2008,12,29,12,21,54.70
2008,12,29,12,22,32.20
2008,12,29,12,23,74.00
2008,12,29,12,24,53.10
2008,12,29,12,25,38.60
2008,12,29,12,26,30.60
2008,12,29,12,27,29.00
2008,12,29,12,28,29.00
2008,12,29,12,29,33.80
2008,12,29,12,30,46.70
2008,12,29,12,31,35.40
2008,12,29,12,32,33.80
2008,12,29,12,33,32.20
2008,12,29,12,34,40.20
2008,12,29,12,35,32.20
2008,12,29,12,36,40.20
2008,12,29,12,37,40.20
2008,12,29,12,38,37.00
2008,12,29,12,39,32.20
2008,12,29,12,40,43.50
2008,12,29,12,41,41.80
2008,12,29,12,42,32.20
2008,12,29,12,43,48.30
2008,12,29,12,44,37.00
2008,12,29,12,45,40.20
2008,12,29,12,46,37.00
2008,12,29,12,47,41.80
2008,12,29,12,48,30.60
2008,12,29,12,49,43.50
2008,12,29,12,50,38.60
2008,12,29,12,51,38.60
2008,12,29,12,52,32.20
2008,12,29,12,53,45.10
2008,12,29,12,54,43.50
2008,12,29,12,55,41.80
2008,12,29,12,56,43.50
2008,12,29,12,57,57.90
2008,12,29,12,58,35.40
2008,12,29,12,59,41.80
2008,12,29,13,00,40.20
2008,12,29,13,01,33.80
2008,12,29,13,02,37.00
2008,12,29,13,03,38.60
2008,12,29,13,04,33.80
2008,12,29,13,05,25.70
2008,12,29,13,06,32.20
2008,12,29,13,07,54.70
2008,12,29,13,08,35.40
2008,12,29,13,09,51.50
2008,12,29,13,10,25.70
2008,12,29,13,11,38.60
2008,12,29,13,12,37.00
2008,12,29,13,13,25.70
2008,12,29,13,14,29.00
2008,12,29,13,15,24.20
2008,12,29,13,16,43.50
2008,12,29,13,17,33.80
2008,12,29,13,18,38.60
2008,12,29,13,19,56.30
2008,12,29,13,20,41.80
2008,12,29,13,21,37.00
2008,12,29,13,22,40.20
2008,12,29,13,23,32.20
2008,12,29,13,24,37.00
2008,12,29,13,25,29.00
2008,12,29,13,26,32.20
2008,12,29,13,27,35.40
2008,12,29,13,28,24.20
2008,12,29,13,29,19.30
2008,12,29,13,30,25.70
2008,12,29,13,31,29.00
2008,12,29,13,32,40.20
2008,12,29,13,33,20.90
2008,12,29,13,34,20.90
2008,12,29,13,35,33.80
2008,12,29,13,36,25.70
2008,12,29,13,37,16.10
2008,12,29,13,38,19.30
2008,12,29,13,39,11.30
2008,12,29,13,40,8.10
2008,12,29,13,41,17.70
2008,12,29,13,42,8.10
2008,12,29,13,43,11.30
2008,12,29,13,44,16.10
2008,12,29,13,45,19.30
2008,12,29,13,46,11.30
2008,12,29,13,47,11.30
2008,12,29,13,48,22.50
2008,12,29,13,49,27.40
2008,12,29,13,50,17.70
2008,12,29,13,51,22.50
2008,12,29,13,52,38.60
2008,12,29,13,53,25.70
2008,12,29,13,54,16.10
2008,12,29,13,55,19.30
2008,12,29,13,56,19.30
2008,12,29,13,57,12.90
2008,12,29,13,58,20.90
2008,12,29,13,59,25.70
2008,12,29,14,00,20.90
2008,12,29,14,01,14.50
2008,12,29,14,02,12.90
2008,12,29,14,03,16.10
2008,12,29,14,04,25.70
2008,12,29,14,05,22.50
2008,12,29,14,06,20.90
2008,12,29,14,07,24.20
2008,12,29,14,08,12.90
2008,12,29,14,09,9.60
2008,12,29,14,10,16.10
2008,12,29,14,11,30.60
2008,12,29,14,12,27.40
2008,12,29,14,13,17.70
2008,12,29,14,14,9.60
2008,12,29,14,15,22.50
2008,12,29,14,16,29.00
2008,12,29,14,17,22.50
2008,12,29,14,18,17.70
2008,12,29,14,19,14.50
2008,12,29,14,20,43.50
2008,12,29,14,21,20.90
2008,12,29,14,22,17.70
2008,12,29,14,23,19.30
2008,12,29,14,24,14.50
2008,12,29,14,25,17.70
2008,12,29,14,26,20.90
2008,12,29,14,27,20.90
2008,12,29,14,28,16.10
2008,12,29,14,29,11.30
2008,12,29,14,30,16.10
2008,12,29,14,31,12.90
2008,12,29,14,32,14.50
2008,12,29,14,33,14.50
2008,12,29,14,34,8.10
2008,12,29,14,35,24.20
2008,12,29,14,36,8.10
2008,12,29,14,37,12.90
2008,12,29,14,38,9.60
2008,12,29,14,39,9.60
2008,12,29,14,40,12.90
2008,12,29,14,41,4.80
2008,12,29,14,42,6.40
2008,12,29,14,43,9.60
2008,12,29,14,44,12.90
2008,12,29,14,45,6.40
2008,12,29,14,46,11.30
2008,12,29,14,47,6.40
2008,12,29,14,48,6.40
2008,12,29,14,49,8.10
2008,12,29,14,50,8.10
2008,12,29,14,51,4.80
2008,12,29,14,52,4.80
2008,12,29,14,53,0.00
2008,12,29,14,54,3.20
2008,12,29,14,55,25.70
2008,12,29,14,56,19.30
2008,12,29,14,57,16.10
2008,12,29,14,58,14.50
2008,12,29,14,59,16.10
2008,12,29,15,00,11.30
2008,12,29,15,01,14.50
2008,12,29,15,02,19.30
2008,12,29,15,03,12.90
2008,12,29,15,04,14.50
2008,12,29,15,05,25.70
2008,12,29,15,06,24.20
2008,12,29,15,07,14.50
2008,12,29,15,08,20.90
2008,12,29,15,09,16.10
2008,12,29,15,10,22.50
2008,12,29,15,11,22.50
2008,12,29,15,12,6.40
2008,12,29,15,13,6.40
2008,12,29,15,14,8.10
2008,12,29,15,15,17.70
2008,12,29,15,16,14.50
2008,12,29,15,17,20.90
2008,12,29,15,18,22.50
2008,12,29,15,19,22.50
2008,12,29,15,20,12.90
2008,12,29,15,21,24.20
2008,12,29,15,22,22.50
2008,12,29,15,23,19.30
2008,12,29,15,24,22.50
2008,12,29,15,25,16.10
2008,12,29,15,26,17.70
2008,12,29,15,27,6.40
2008,12,29,15,28,16.10
2008,12,29,15,29,12.90
2008,12,29,15,30,16.10
2008,12,29,15,31,17.70
2008,12,29,15,32,17.70
2008,12,29,15,33,20.90
2008,12,29,15,34,11.30
2008,12,29,15,35,11.30
2008,12,29,15,36,14.50
2008,12,29,15,37,11.30
2008,12,29,15,38,20.90
2008,12,29,15,39,25.70
2008,12,29,15,40,20.90
2008,12,29,15,41,22.50
2008,12,29,15,42,19.30
2008,12,29,15,43,9.60
2008,12,29,15,44,16.10
2008,12,29,15,45,16.10
2008,12,29,15,46,19.30
2008,12,29,15,47,14.50
2008,12,29,15,48,6.40
2008,12,29,15,49,16.10
2008,12,29,15,50,9.60
2008,12,29,15,51,17.70
2008,12,29,15,52,11.30
2008,12,29,15,53,12.90
2008,12,29,15,54,20.90
2008,12,29,15,55,14.50
2008,12,29,15,56,9.60
2008,12,29,15,57,8.10
2008,12,29,15,58,6.40
2008,12,29,15,59,16.10
2008,12,29,16,00,11.30
2008,12,29,16,01,8.10
2008,12,29,16,02,9.60
2008,12,29,16,03,16.10
2008,12,29,16,04,11.30
2008,12,29,16,05,6.40
2008,12,29,16,06,1.60
2008,12,29,16,07,4.80
2008,12,29,16,08,4.80
2008,12,29,16,09,6.40
2008,12,29,16,10,4.80
2008,12,29,16,11,4.80
2008,12,29,16,12,12.90
2008,12,29,16,13,6.40
2008,12,29,16,14,17.70
2008,12,29,16,15,9.60
2008,12,29,16,16,9.60
2008,12,29,16,17,9.60
2008,12,29,16,18,16.10
2008,12,29,16,19,22.50
2008,12,29,16,20,9.60
2008,12,29,16,21,16.10
2008,12,29,16,22,17.70
2008,12,29,16,23,17.70
2008,12,29,16,24,9.60
2008,12,29,16,25,11.30
2008,12,29,16,26,9.60
2008,12,29,16,27,16.10
2008,12,29,16,28,8.10
2008,12,29,16,29,9.60
2008,12,29,16,30,14.50
2008,12,29,16,31,4.80
2008,12,29,16,32,8.10
2008,12,29,16,33,27.40
2008,12,29,16,34,20.90
2008,12,29,16,35,8.10
2008,12,29,16,36,6.40
2008,12,29,16,37,6.40
2008,12,29,16,38,20.90
2008,12,29,16,39,19.30
2008,12,29,16,40,9.60
2008,12,29,16,41,6.40
2008,12,29,16,42,6.40
2008,12,29,16,43,9.60
2008,12,29,16,44,9.60
2008,12,29,16,45,8.10
2008,12,29,16,46,19.30
2008,12,29,16,47,11.30
2008,12,29,16,48,22.50
2008,12,29,16,49,22.50
2008,12,29,16,50,27.40
2008,12,29,16,51,32.20
2008,12,29,16,52,8.10
2008,12,29,16,53,24.20
2008,12,29,16,54,14.50
2008,12,29,16,55,22.50
2008,12,29,16,56,29.00
2008,12,29,16,57,16.10
2008,12,29,16,58,11.30
2008,12,29,16,59,14.50
2008,12,29,17,00,11.30
2008,12,29,17,01,11.30
2008,12,29,17,02,3.20
2008,12,29,17,03,4.80
2008,12,29,17,04,6.40
2008,12,29,17,05,6.40
2008,12,29,17,06,1.60
2008,12,29,17,07,3.20
2008,12,29,17,08,8.10
2008,12,29,17,09,9.60
2008,12,29,17,10,3.20
2008,12,29,17,11,11.30
2008,12,29,17,12,4.80
2008,12,29,17,13,6.40
2008,12,29,17,14,8.10
2008,12,29,17,15,4.80
2008,12,29,17,16,14.50
2008,12,29,17,17,14.50
2008,12,29,17,18,8.10
2008,12,29,17,19,11.30
2008,12,29,17,20,14.50
2008,12,29,17,21,6.40
2008,12,29,17,22,17.70
2008,12,29,17,23,14.50
2008,12,29,17,24,14.50
2008,12,29,17,25,17.70
2008,12,29,17,26,20.90
2008,12,29,17,27,20.90
2008,12,29,17,28,29.00
2008,12,29,17,29,17.70
2008,12,29,17,30,9.60
2008,12,29,17,31,16.10
2008,12,29,17,32,8.10
2008,12,29,17,33,20.90
2008,12,29,17,34,22.50
2008,12,29,17,35,17.70
2008,12,29,17,36,20.90
2008,12,29,17,37,25.70
2008,12,29,17,38,14.50
2008,12,29,17,39,29.00
2008,12,29,17,40,16.10
2008,12,29,17,41,22.50
2008,12,29,17,42,29.00
2008,12,29,17,43,27.40
2008,12,29,17,44,25.70
2008,12,29,17,45,20.90
2008,12,29,17,46,20.90
2008,12,29,17,47,19.30
2008,12,29,17,48,22.50
2008,12,29,17,49,19.30
2008,12,29,17,50,20.90
2008,12,29,17,51,11.30
2008,12,29,17,52,29.00